TimeEDT,TemperatureF,Dew PointF,Humidity,Sea Level PressureIn,VisibilityMPH,Wind Direction,Wind SpeedMPH,Gust SpeedMPH,PrecipitationIn,Events,Conditions,WindDirDegrees,DateUTC
12:54 AM,43.0,39.0,86,30.44,-9999.0,SE,5.8,-,N/A,,Unknown,140,2013-04-27 04:54:00
1:54 AM,44.1,37.9,79,30.43,-9999.0,SSE,4.6,-,N/A,,Unknown,150,2013-04-27 05:54:00
2:54 AM,46.0,28.9,51,30.43,-9999.0,SSE,4.6,-,N/A,,Unknown,150,2013-04-27 06:54:00
3:54 AM,44.1,36.0,73,30.43,-9999.0,West,3.5,-,N/A,,Unknown,270,2013-04-27 07:54:00
4:54 AM,44.1,35.1,71,30.42,-9999.0,Calm,Calm,-,N/A,,Unknown,0,2013-04-27 08:54:00
5:54 AM,43.0,39.0,86,30.42,-9999.0,NE,4.6,-,N/A,,Unknown,40,2013-04-27 09:54:00
6:54 AM,44.1,41.0,89,30.43,-9999.0,NNE,8.1,-,N/A,,Unknown,30,2013-04-27 10:54:00
7:54 AM,46.9,37.9,71,30.44,-9999.0,NNE,6.9,-,N/A,,Unknown,30,2013-04-27 11:54:00
8:54 AM,50.0,35.1,57,30.44,-9999.0,East,4.6,-,N/A,,Unknown,100,2013-04-27 12:54:00
9:54 AM,54.0,35.1,49,30.43,-9999.0,Calm,Calm,-,N/A,,Unknown,0,2013-04-27 13:54:00
10:54 AM,55.9,32.0,40,30.44,-9999.0,Variable,6.9,-,N/A,,Unknown,0,2013-04-27 14:54:00
11:54 AM,59.0,33.1,38,30.43,-9999.0,SW,5.8,-,N/A,,Unknown,220,2013-04-27 15:54:00
12:54 PM,61.0,35.1,38,30.40,-9999.0,ENE,8.1,-,N/A,,Unknown,70,2013-04-27 16:54:00
1:54 PM,60.1,30.9,33,30.38,-9999.0,ENE,11.5,16.1,N/A,,Unknown,70,2013-04-27 17:54:00
2:54 PM,61.0,30.9,32,30.36,-9999.0,ENE,9.2,16.1,N/A,,Unknown,70,2013-04-27 18:54:00
3:54 PM,62.1,30.0,30,30.35,-9999.0,East,8.1,18.4,N/A,,Unknown,100,2013-04-27 19:54:00
4:54 PM,60.1,32.0,35,30.34,-9999.0,SE,6.9,16.1,N/A,,Unknown,140,2013-04-27 20:54:00
5:54 PM,59.0,33.1,38,30.33,-9999.0,SSE,8.1,17.3,N/A,,Unknown,160,2013-04-27 21:54:00
6:54 PM,57.0,30.9,37,30.33,-9999.0,SSE,9.2,18.4,N/A,,Unknown,160,2013-04-27 22:54:00
7:54 PM,53.1,30.9,43,30.33,-9999.0,South,13.8,20.7,N/A,,Unknown,180,2013-04-27 23:54:00
8:54 PM,50.0,30.9,48,30.35,-9999.0,South,11.5,-,N/A,,Unknown,190,2013-04-28 00:54:00
9:54 PM,48.0,30.0,50,30.36,-9999.0,South,12.7,-,N/A,,Unknown,190,2013-04-28 01:54:00
10:54 PM,46.9,33.1,59,30.36,-9999.0,SSW,12.7,-,N/A,,Unknown,210,2013-04-28 02:54:00
11:54 PM,46.0,33.1,61,30.36,-9999.0,SW,12.7,-,N/A,,Unknown,220,2013-04-28 03:54:00